Year,Month,Day,Hour,Minute,Value (Times are PST for temperature in C)
2014,07,16,00,00,23.60
2014,07,16,00,01,23.60
2014,07,16,00,02,23.60
2014,07,16,00,03,23.60
2014,07,16,00,04,23.60
2014,07,16,00,05,23.60
2014,07,16,00,06,23.50
2014,07,16,00,07,23.50
2014,07,16,00,08,23.50
2014,07,16,00,09,23.50
2014,07,16,00,10,23.40
2014,07,16,00,11,23.40
2014,07,16,00,12,23.40
2014,07,16,00,13,23.40
2014,07,16,00,14,23.30
2014,07,16,00,15,23.30
2014,07,16,00,16,23.30
2014,07,16,00,17,23.30
2014,07,16,00,18,23.20
2014,07,16,00,19,23.20
2014,07,16,00,20,23.20
2014,07,16,00,21,23.20
2014,07,16,00,22,23.10
2014,07,16,00,23,23.10
2014,07,16,00,24,23.10
2014,07,16,00,25,23.10
2014,07,16,00,26,23.10
2014,07,16,00,27,23.10
2014,07,16,00,28,23.00
2014,07,16,00,29,23.00
2014,07,16,00,30,23.00
2014,07,16,00,31,23.00
2014,07,16,00,32,22.90
2014,07,16,00,33,22.90
2014,07,16,00,34,22.90
2014,07,16,00,35,22.90
2014,07,16,00,36,22.90
2014,07,16,00,37,22.90
2014,07,16,00,38,22.90
2014,07,16,00,39,22.80
2014,07,16,00,40,22.80
2014,07,16,00,41,22.80
2014,07,16,00,42,22.80
2014,07,16,00,43,22.70
2014,07,16,00,44,22.70
2014,07,16,00,45,22.60
2014,07,16,00,46,22.60
2014,07,16,00,47,22.50
2014,07,16,00,48,22.50
2014,07,16,00,49,22.40
2014,07,16,00,50,22.30
2014,07,16,00,51,22.20
2014,07,16,00,52,22.10
2014,07,16,00,53,22.00
2014,07,16,00,54,22.00
2014,07,16,00,55,21.80
2014,07,16,00,56,21.70
2014,07,16,00,57,21.70
2014,07,16,00,58,21.50
2014,07,16,00,59,21.40
2014,07,16,01,00,21.30
2014,07,16,01,01,21.20
2014,07,16,01,02,21.10
2014,07,16,01,03,21.00
2014,07,16,01,04,20.90
2014,07,16,01,05,20.80
2014,07,16,01,06,20.80
2014,07,16,01,07,20.70
2014,07,16,01,08,20.60
2014,07,16,01,09,20.50
2014,07,16,01,10,20.50
2014,07,16,01,11,20.40
2014,07,16,01,12,20.30
2014,07,16,01,13,20.20
2014,07,16,01,14,20.20
2014,07,16,01,15,20.10
2014,07,16,01,16,20.00
2014,07,16,01,17,20.00
2014,07,16,01,18,19.90
2014,07,16,01,19,19.80
2014,07,16,01,20,19.80
2014,07,16,01,21,19.70
2014,07,16,01,22,19.70
2014,07,16,01,23,19.70
2014,07,16,01,24,19.60
2014,07,16,01,25,19.60
2014,07,16,01,26,19.60
2014,07,16,01,27,19.50
2014,07,16,01,28,19.50
2014,07,16,01,29,19.50
2014,07,16,01,30,19.50
2014,07,16,01,31,19.50
2014,07,16,01,32,19.50
2014,07,16,01,33,19.50
2014,07,16,01,34,19.40
2014,07,16,01,35,19.40
2014,07,16,01,36,19.40
2014,07,16,01,37,19.40
2014,07,16,01,38,19.40
2014,07,16,01,39,19.40
2014,07,16,01,40,19.40
2014,07,16,01,41,19.30
2014,07,16,01,42,19.30
2014,07,16,01,43,19.20
2014,07,16,01,44,19.20
2014,07,16,01,45,19.10
2014,07,16,01,46,19.10
2014,07,16,01,47,19.10
2014,07,16,01,48,19.10
2014,07,16,01,49,19.10
2014,07,16,01,50,19.20
2014,07,16,01,51,19.20
2014,07,16,01,52,19.20
2014,07,16,01,53,19.20
2014,07,16,01,54,19.30
2014,07,16,01,55,19.30
2014,07,16,01,56,19.40
2014,07,16,01,57,19.50
2014,07,16,01,58,19.60
2014,07,16,01,59,19.70
2014,07,16,02,00,19.80
2014,07,16,02,01,19.80
2014,07,16,02,02,19.80
2014,07,16,02,03,19.90
2014,07,16,02,04,19.90
2014,07,16,02,05,19.90
2014,07,16,02,06,20.00
2014,07,16,02,07,20.00
2014,07,16,02,08,20.10
2014,07,16,02,09,20.20
2014,07,16,02,10,20.30
2014,07,16,02,11,20.30
2014,07,16,02,12,20.40
2014,07,16,02,13,20.40
2014,07,16,02,14,20.40
2014,07,16,02,15,20.40
2014,07,16,02,16,20.40
2014,07,16,02,17,20.40
2014,07,16,02,18,20.30
2014,07,16,02,19,20.30
2014,07,16,02,20,20.20
2014,07,16,02,21,20.20
2014,07,16,02,22,20.10
2014,07,16,02,23,20.10
2014,07,16,02,24,20.10
2014,07,16,02,25,20.10
2014,07,16,02,26,20.20
2014,07,16,02,27,20.20
2014,07,16,02,28,20.30
2014,07,16,02,29,20.30
2014,07,16,02,30,20.30
2014,07,16,02,31,20.30
2014,07,16,02,32,20.40
2014,07,16,02,33,20.50
2014,07,16,02,34,20.50
2014,07,16,02,35,20.60
2014,07,16,02,36,20.70
2014,07,16,02,37,20.80
2014,07,16,02,38,20.80
2014,07,16,02,39,20.90
2014,07,16,02,40,21.00
2014,07,16,02,41,21.00
2014,07,16,02,42,21.00
2014,07,16,02,43,21.00
2014,07,16,02,44,21.00
2014,07,16,02,45,20.90
2014,07,16,02,46,20.90
2014,07,16,02,47,20.80
2014,07,16,02,48,20.80
2014,07,16,02,49,20.80
2014,07,16,02,50,20.80
2014,07,16,02,51,20.70
2014,07,16,02,52,20.70
2014,07,16,02,53,20.70
2014,07,16,02,54,20.70
2014,07,16,02,55,20.70
2014,07,16,02,56,20.70
2014,07,16,02,57,20.80
2014,07,16,02,58,20.80
2014,07,16,02,59,20.90
2014,07,16,03,00,20.90
2014,07,16,03,01,20.90
2014,07,16,03,02,21.00
2014,07,16,03,03,21.00
2014,07,16,03,04,21.00
2014,07,16,03,05,21.00
2014,07,16,03,06,21.10
2014,07,16,03,07,21.10
2014,07,16,03,08,21.10
2014,07,16,03,09,21.10
2014,07,16,03,10,21.10
2014,07,16,03,11,21.20
2014,07,16,03,12,21.20
2014,07,16,03,13,21.20
2014,07,16,03,14,21.20
2014,07,16,03,15,21.20
2014,07,16,03,16,21.20
2014,07,16,03,17,21.20
2014,07,16,03,18,21.20
2014,07,16,03,19,21.20
2014,07,16,03,20,21.30
2014,07,16,03,21,21.30
2014,07,16,03,22,21.30
2014,07,16,03,23,21.30
2014,07,16,03,24,21.30
2014,07,16,03,25,21.30
2014,07,16,03,26,21.30
2014,07,16,03,27,21.30
2014,07,16,03,28,21.30
2014,07,16,03,29,21.40
2014,07,16,03,30,21.40
2014,07,16,03,31,21.40
2014,07,16,03,32,21.40
2014,07,16,03,33,21.40
2014,07,16,03,34,21.40
2014,07,16,03,35,21.40
2014,07,16,03,36,21.40
2014,07,16,03,37,21.40
2014,07,16,03,38,21.40
2014,07,16,03,39,21.40
2014,07,16,03,40,21.50
2014,07,16,03,41,21.50
2014,07,16,03,42,21.50
2014,07,16,03,43,21.50
2014,07,16,03,44,21.50
2014,07,16,03,45,21.60
2014,07,16,03,46,21.60
2014,07,16,03,47,21.60
2014,07,16,03,48,21.60
2014,07,16,03,49,21.60
2014,07,16,03,50,21.60
2014,07,16,03,51,21.60
2014,07,16,03,52,21.60
2014,07,16,03,53,21.60
2014,07,16,03,54,21.60
2014,07,16,03,55,21.60
2014,07,16,03,56,21.60
2014,07,16,03,57,21.60
2014,07,16,03,58,21.60
2014,07,16,03,59,21.60
2014,07,16,04,00,21.60
2014,07,16,04,01,21.60
2014,07,16,04,02,21.60
2014,07,16,04,03,21.60
2014,07,16,04,04,21.60
2014,07,16,04,05,21.60
2014,07,16,04,06,21.50
2014,07,16,04,07,21.50
2014,07,16,04,08,21.60
2014,07,16,04,09,21.60
2014,07,16,04,10,21.60
2014,07,16,04,11,21.60
2014,07,16,04,12,21.60
2014,07,16,04,13,21.60
2014,07,16,04,14,21.60
2014,07,16,04,15,21.60
2014,07,16,04,16,21.60
2014,07,16,04,17,21.60
2014,07,16,04,18,21.60
2014,07,16,04,19,21.50
2014,07,16,04,20,21.50
2014,07,16,04,21,21.50
2014,07,16,04,22,21.50
2014,07,16,04,23,21.50
2014,07,16,04,24,21.50
2014,07,16,04,25,21.50
2014,07,16,04,26,21.50
2014,07,16,04,27,21.50
2014,07,16,04,28,21.50
2014,07,16,04,29,21.50
2014,07,16,04,30,21.50
2014,07,16,04,31,21.50
2014,07,16,04,32,21.50
2014,07,16,04,33,21.50
2014,07,16,04,34,21.50
2014,07,16,04,35,21.50
2014,07,16,04,36,21.50
2014,07,16,04,37,21.50
2014,07,16,04,38,21.50
2014,07,16,04,39,21.50
2014,07,16,04,40,21.50
2014,07,16,04,41,21.50
2014,07,16,04,42,21.50
2014,07,16,04,43,21.50
2014,07,16,04,44,21.50
2014,07,16,04,45,21.50
2014,07,16,04,46,21.50
2014,07,16,04,47,21.50
2014,07,16,04,48,21.60
2014,07,16,04,49,21.60
2014,07,16,04,50,21.60
2014,07,16,04,51,21.60
2014,07,16,04,52,21.60
2014,07,16,04,53,21.60
2014,07,16,04,54,21.60
2014,07,16,04,55,21.60
2014,07,16,04,56,21.60
2014,07,16,04,57,21.50
2014,07,16,04,58,21.50
2014,07,16,04,59,21.50
2014,07,16,05,00,21.50
2014,07,16,05,01,21.50
2014,07,16,05,02,21.50
2014,07,16,05,03,21.50
2014,07,16,05,04,21.50
2014,07,16,05,05,21.50
2014,07,16,05,06,21.50
2014,07,16,05,07,21.40
2014,07,16,05,08,21.40
2014,07,16,05,09,21.40
2014,07,16,05,10,21.40
2014,07,16,05,11,21.40
2014,07,16,05,12,21.40
2014,07,16,05,13,21.30
2014,07,16,05,14,21.30
2014,07,16,05,15,21.30
2014,07,16,05,16,21.30
2014,07,16,05,17,21.30
2014,07,16,05,18,21.20
2014,07,16,05,19,21.20
2014,07,16,05,20,21.20
2014,07,16,05,21,21.20
2014,07,16,05,22,21.10
2014,07,16,05,23,21.10
2014,07,16,05,24,21.10
2014,07,16,05,25,21.00
2014,07,16,05,26,21.00
2014,07,16,05,27,21.00
2014,07,16,05,28,20.90
2014,07,16,05,29,20.90
2014,07,16,05,30,20.90
2014,07,16,05,31,20.90
2014,07,16,05,32,20.90
2014,07,16,05,33,20.90
2014,07,16,05,34,20.90
2014,07,16,05,35,20.80
2014,07,16,05,36,20.80
2014,07,16,05,37,20.80
2014,07,16,05,38,20.80
2014,07,16,05,39,20.80
2014,07,16,05,40,20.80
2014,07,16,05,41,20.80
2014,07,16,05,42,20.80
2014,07,16,05,43,20.80
2014,07,16,05,44,20.80
2014,07,16,05,45,20.80
2014,07,16,05,46,20.80
2014,07,16,05,47,20.80
2014,07,16,05,48,20.80
2014,07,16,05,49,20.80
2014,07,16,05,50,20.80
2014,07,16,05,51,20.80
2014,07,16,05,52,20.80
2014,07,16,05,53,20.80
2014,07,16,05,54,20.80
2014,07,16,05,55,20.80
2014,07,16,05,56,20.80
2014,07,16,05,57,20.80
2014,07,16,05,58,20.80
2014,07,16,05,59,20.80
2014,07,16,06,00,20.80
2014,07,16,06,01,20.80
2014,07,16,06,02,20.80
2014,07,16,06,03,20.80
2014,07,16,06,04,20.80
2014,07,16,06,05,20.80
2014,07,16,06,06,20.80
2014,07,16,06,07,20.80
2014,07,16,06,08,20.80
2014,07,16,06,09,20.80
2014,07,16,06,10,20.80
2014,07,16,06,11,20.80
2014,07,16,06,12,20.80
2014,07,16,06,13,20.80
2014,07,16,06,14,20.80
2014,07,16,06,15,20.80
2014,07,16,06,16,20.80
2014,07,16,06,17,20.80
2014,07,16,06,18,20.80
2014,07,16,06,19,20.90
2014,07,16,06,20,20.90
2014,07,16,06,21,20.90
2014,07,16,06,22,20.90
2014,07,16,06,23,20.90
2014,07,16,06,24,20.90
2014,07,16,06,25,20.90
2014,07,16,06,26,21.00
2014,07,16,06,27,21.00
2014,07,16,06,28,21.00
2014,07,16,06,29,21.10
2014,07,16,06,30,21.10
2014,07,16,06,31,21.10
2014,07,16,06,32,21.10
2014,07,16,06,33,21.10
2014,07,16,06,34,21.10
2014,07,16,06,35,21.20
2014,07,16,06,36,21.20
2014,07,16,06,37,21.20
2014,07,16,06,38,21.20
2014,07,16,06,39,21.20
2014,07,16,06,40,21.30
2014,07,16,06,41,21.30
2014,07,16,06,42,21.30
2014,07,16,06,43,21.30
2014,07,16,06,44,21.30
2014,07,16,06,45,21.30
2014,07,16,06,46,21.40
2014,07,16,06,47,21.40
2014,07,16,06,48,21.40
2014,07,16,06,49,21.40
2014,07,16,06,50,21.40
2014,07,16,06,51,21.40
2014,07,16,06,52,21.40
2014,07,16,06,53,21.40
2014,07,16,06,54,21.40
2014,07,16,06,55,21.40
2014,07,16,06,56,21.40
2014,07,16,06,57,21.40
2014,07,16,06,58,21.40
2014,07,16,06,59,21.40
2014,07,16,07,00,21.40
2014,07,16,07,01,21.40
2014,07,16,07,02,21.40
2014,07,16,07,03,21.40
2014,07,16,07,04,21.40
2014,07,16,07,05,21.40
2014,07,16,07,06,21.40
2014,07,16,07,07,21.40
2014,07,16,07,08,21.40
2014,07,16,07,09,21.40
2014,07,16,07,10,21.40
2014,07,16,07,11,21.40
2014,07,16,07,12,21.40
2014,07,16,07,13,21.50
2014,07,16,07,14,21.50
2014,07,16,07,15,21.50
2014,07,16,07,16,21.60
2014,07,16,07,17,21.60
2014,07,16,07,18,21.60
2014,07,16,07,19,21.60
2014,07,16,07,20,21.60
2014,07,16,07,21,21.60
2014,07,16,07,22,21.60
2014,07,16,07,23,21.70
2014,07,16,07,24,21.70
2014,07,16,07,25,21.70
2014,07,16,07,26,21.70
2014,07,16,07,27,21.70
2014,07,16,07,28,21.70
2014,07,16,07,29,21.70
2014,07,16,07,30,21.70
2014,07,16,07,31,21.70
2014,07,16,07,32,21.70
2014,07,16,07,33,21.80
2014,07,16,07,34,21.80
2014,07,16,07,35,21.70
2014,07,16,07,36,21.80
2014,07,16,07,37,21.80
2014,07,16,07,38,21.80
2014,07,16,07,39,21.80
2014,07,16,07,40,21.80
2014,07,16,07,41,21.80
2014,07,16,07,42,21.90
2014,07,16,07,43,21.90
2014,07,16,07,44,22.00
2014,07,16,07,45,22.00
2014,07,16,07,46,22.10
2014,07,16,07,47,22.10
2014,07,16,07,48,22.10
2014,07,16,07,49,22.10
2014,07,16,07,50,22.10
2014,07,16,07,51,22.20
2014,07,16,07,52,22.20
2014,07,16,07,53,22.20
2014,07,16,07,54,22.20
2014,07,16,07,55,22.20
2014,07,16,07,56,22.20
2014,07,16,07,57,22.20
2014,07,16,07,58,22.20
2014,07,16,07,59,22.20
2014,07,16,08,00,22.20
2014,07,16,08,01,22.30
2014,07,16,08,02,22.30
2014,07,16,08,03,22.30
2014,07,16,08,04,22.30
2014,07,16,08,05,22.30
2014,07,16,08,06,22.30
2014,07,16,08,07,22.30
2014,07,16,08,08,22.40
2014,07,16,08,09,22.40
2014,07,16,08,10,22.50
2014,07,16,08,11,22.50
2014,07,16,08,12,22.60
2014,07,16,08,13,22.60
2014,07,16,08,14,22.60
2014,07,16,08,15,22.60
2014,07,16,08,16,22.60
2014,07,16,08,17,22.60
2014,07,16,08,18,22.60
2014,07,16,08,19,22.60
2014,07,16,08,20,22.60
2014,07,16,08,21,22.70
2014,07,16,08,22,22.70
2014,07,16,08,23,22.80
2014,07,16,08,24,22.80
2014,07,16,08,25,22.80
2014,07,16,08,26,22.90
2014,07,16,08,27,22.90
2014,07,16,08,28,22.90
2014,07,16,08,29,23.00
2014,07,16,08,30,23.10
2014,07,16,08,31,23.10
2014,07,16,08,32,23.10
2014,07,16,08,33,23.10
2014,07,16,08,34,23.20
2014,07,16,08,35,23.20
2014,07,16,08,36,23.20
2014,07,16,08,37,23.20
2014,07,16,08,38,23.20
2014,07,16,08,39,23.20
2014,07,16,08,40,23.30
2014,07,16,08,41,23.30
2014,07,16,08,42,23.30
2014,07,16,08,43,23.40
2014,07,16,08,44,23.40
2014,07,16,08,45,23.40
2014,07,16,08,46,23.40
2014,07,16,08,47,23.50
2014,07,16,08,48,23.60
2014,07,16,08,49,23.60
2014,07,16,08,50,23.70
2014,07,16,08,51,23.70
2014,07,16,08,52,23.70
2014,07,16,08,53,23.80
2014,07,16,08,54,23.80
2014,07,16,08,55,23.90
2014,07,16,08,56,24.00
2014,07,16,08,57,24.00
2014,07,16,08,58,24.00
2014,07,16,08,59,23.90
2014,07,16,09,00,23.90
2014,07,16,09,01,24.00
2014,07,16,09,02,24.00
2014,07,16,09,03,24.00
2014,07,16,09,04,24.00
2014,07,16,09,05,24.00
2014,07,16,09,06,24.10
2014,07,16,09,07,24.10
2014,07,16,09,08,24.10
2014,07,16,09,09,24.10
2014,07,16,09,10,24.10
2014,07,16,09,11,24.10
2014,07,16,09,12,24.10
2014,07,16,09,13,24.10
2014,07,16,09,14,24.10
2014,07,16,09,15,24.10
2014,07,16,09,16,24.10
2014,07,16,09,17,24.10
2014,07,16,09,18,24.20
2014,07,16,09,19,24.20
2014,07,16,09,20,24.30
2014,07,16,09,21,24.30
2014,07,16,09,22,24.40
2014,07,16,09,23,24.50
2014,07,16,09,24,24.50
2014,07,16,09,25,24.50
2014,07,16,09,26,24.50
2014,07,16,09,27,24.60
2014,07,16,09,28,24.60
2014,07,16,09,29,24.60
2014,07,16,09,30,24.60
2014,07,16,09,31,24.60
2014,07,16,09,32,24.60
2014,07,16,09,33,24.60
2014,07,16,09,34,24.70
2014,07,16,09,35,24.70
2014,07,16,09,36,24.70
2014,07,16,09,37,24.70
2014,07,16,09,38,24.70
2014,07,16,09,39,24.80
2014,07,16,09,40,24.80
2014,07,16,09,41,24.90
2014,07,16,09,42,25.00
2014,07,16,09,43,25.10
2014,07,16,09,44,25.20
2014,07,16,09,45,25.20
2014,07,16,09,46,25.30
2014,07,16,09,47,25.30
2014,07,16,09,48,25.40
2014,07,16,09,49,25.40
2014,07,16,09,50,25.40
2014,07,16,09,51,25.40
2014,07,16,09,52,25.50
2014,07,16,09,53,25.40
2014,07,16,09,54,25.40
2014,07,16,09,55,25.20
2014,07,16,09,56,25.10
2014,07,16,09,57,25.00
2014,07,16,09,58,25.00
2014,07,16,09,59,25.00
2014,07,16,10,00,24.90
2014,07,16,10,01,24.90
2014,07,16,10,02,25.00
2014,07,16,10,03,25.10
2014,07,16,10,04,25.20
2014,07,16,10,05,25.30
2014,07,16,10,06,25.40
2014,07,16,10,07,25.50
2014,07,16,10,08,25.60
2014,07,16,10,09,25.70
2014,07,16,10,10,25.80
2014,07,16,10,11,25.80
2014,07,16,10,12,25.80
2014,07,16,10,13,25.80
2014,07,16,10,14,25.90
2014,07,16,10,15,25.90
2014,07,16,10,16,25.90
2014,07,16,10,17,25.80
2014,07,16,10,18,25.80
2014,07,16,10,19,25.80
2014,07,16,10,20,25.80
2014,07,16,10,21,25.80
2014,07,16,10,22,25.90
2014,07,16,10,23,25.90
2014,07,16,10,24,25.90
2014,07,16,10,25,26.00
2014,07,16,10,26,26.10
2014,07,16,10,27,26.00
2014,07,16,10,28,25.90
2014,07,16,10,29,25.90
2014,07,16,10,30,25.80
2014,07,16,10,31,25.80
2014,07,16,10,32,25.70
2014,07,16,10,33,25.60
2014,07,16,10,34,25.50
2014,07,16,10,35,25.50
2014,07,16,10,36,25.30
2014,07,16,10,37,25.30
2014,07,16,10,38,25.30
2014,07,16,10,39,25.20
2014,07,16,10,40,25.20
2014,07,16,10,41,25.20
2014,07,16,10,42,25.20
2014,07,16,10,43,25.20
2014,07,16,10,44,25.20
2014,07,16,10,45,25.20
2014,07,16,10,46,25.20
2014,07,16,10,47,25.20
2014,07,16,10,48,25.20
2014,07,16,10,49,25.20
2014,07,16,10,50,25.30
2014,07,16,10,51,25.40
2014,07,16,10,52,25.50
2014,07,16,10,53,25.60
2014,07,16,10,54,25.70
2014,07,16,10,55,25.80
2014,07,16,10,56,25.90
2014,07,16,10,57,25.90
2014,07,16,10,58,26.00
2014,07,16,10,59,26.10
2014,07,16,11,00,26.10
2014,07,16,11,01,26.20
2014,07,16,11,02,26.30
2014,07,16,11,03,26.40
2014,07,16,11,04,26.50
2014,07,16,11,05,26.60
2014,07,16,11,06,26.70
2014,07,16,11,07,26.60
2014,07,16,11,08,26.60
2014,07,16,11,09,26.60
2014,07,16,11,10,26.60
2014,07,16,11,11,26.70
2014,07,16,11,12,26.60
2014,07,16,11,13,26.50
2014,07,16,11,14,26.40
2014,07,16,11,15,26.40
2014,07,16,11,16,26.30
2014,07,16,11,17,26.30
2014,07,16,11,18,26.20
2014,07,16,11,19,26.20
2014,07,16,11,20,26.20
2014,07,16,11,21,26.20
2014,07,16,11,22,26.30
2014,07,16,11,23,26.40
2014,07,16,11,24,26.50
2014,07,16,11,25,26.70
2014,07,16,11,26,26.80
2014,07,16,11,27,27.00
2014,07,16,11,28,27.10
2014,07,16,11,29,27.10
2014,07,16,11,30,27.10
2014,07,16,11,31,27.10
2014,07,16,11,32,27.00
2014,07,16,11,33,27.00
2014,07,16,11,34,27.00
2014,07,16,11,35,27.10
2014,07,16,11,36,27.10
2014,07,16,11,37,27.10
2014,07,16,11,38,27.10
2014,07,16,11,39,27.00
2014,07,16,11,40,26.90
2014,07,16,11,41,26.90
2014,07,16,11,42,27.00
2014,07,16,11,43,27.00
2014,07,16,11,44,26.90
2014,07,16,11,45,26.80
2014,07,16,11,46,26.80
2014,07,16,11,47,26.70
2014,07,16,11,48,26.80
2014,07,16,11,49,26.80
2014,07,16,11,50,26.90
2014,07,16,11,51,27.00
2014,07,16,11,52,27.10
2014,07,16,11,53,27.10
2014,07,16,11,54,27.10
2014,07,16,11,55,27.10
2014,07,16,11,56,27.10
2014,07,16,11,57,27.20
2014,07,16,11,58,27.30
2014,07,16,11,59,27.30
2014,07,16,12,00,27.40
2014,07,16,12,01,27.40
2014,07,16,12,02,27.40
2014,07,16,12,03,27.50
2014,07,16,12,04,27.50
2014,07,16,12,05,27.60
2014,07,16,12,06,27.70
2014,07,16,12,07,27.80
2014,07,16,12,08,27.80
2014,07,16,12,09,27.70
2014,07,16,12,10,27.70
2014,07,16,12,11,27.60
2014,07,16,12,12,27.60
2014,07,16,12,13,27.60
2014,07,16,12,14,27.60
2014,07,16,12,15,27.60
2014,07,16,12,16,27.70
2014,07,16,12,17,27.70
2014,07,16,12,18,27.70
2014,07,16,12,19,27.70
2014,07,16,12,20,27.60
2014,07,16,12,21,27.60
2014,07,16,12,22,27.60
2014,07,16,12,23,27.70
2014,07,16,12,24,27.70
2014,07,16,12,25,27.80
2014,07,16,12,26,27.80
2014,07,16,12,27,27.80
2014,07,16,12,28,27.80
2014,07,16,12,29,27.90
2014,07,16,12,30,27.90
2014,07,16,12,31,27.90
2014,07,16,12,32,27.90
2014,07,16,12,33,28.00
2014,07,16,12,34,28.00
2014,07,16,12,35,28.10
2014,07,16,12,36,28.20
2014,07,16,12,37,28.20
2014,07,16,12,38,28.30
2014,07,16,12,39,28.30
2014,07,16,12,40,28.30
2014,07,16,12,41,28.30
2014,07,16,12,42,28.30
2014,07,16,12,43,28.30
2014,07,16,12,44,28.30
2014,07,16,12,45,28.40
2014,07,16,12,46,28.50
2014,07,16,12,47,28.50
2014,07,16,12,48,28.60
2014,07,16,12,49,28.50
2014,07,16,12,50,28.50
2014,07,16,12,51,28.50
2014,07,16,12,52,28.50
2014,07,16,12,53,28.60
2014,07,16,12,54,28.60
2014,07,16,12,55,28.70
2014,07,16,12,56,28.70
2014,07,16,12,57,28.70
2014,07,16,12,58,28.70
2014,07,16,12,59,28.70
2014,07,16,13,00,28.70
2014,07,16,13,01,28.60
2014,07,16,13,02,28.60
2014,07,16,13,03,28.60
2014,07,16,13,04,28.60
2014,07,16,13,05,28.60
2014,07,16,13,06,28.60
2014,07,16,13,07,28.50
2014,07,16,13,08,28.40
2014,07,16,13,09,28.40
2014,07,16,13,10,28.40
2014,07,16,13,11,28.40
2014,07,16,13,12,28.40
2014,07,16,13,13,28.40
2014,07,16,13,14,28.40
2014,07,16,13,15,28.50
2014,07,16,13,16,28.60
2014,07,16,13,17,28.70
2014,07,16,13,18,28.70
2014,07,16,13,19,28.70
2014,07,16,13,20,28.70
2014,07,16,13,21,28.70
2014,07,16,13,22,28.80
2014,07,16,13,23,28.80
2014,07,16,13,24,28.90
2014,07,16,13,25,28.90
2014,07,16,13,26,28.90
2014,07,16,13,27,28.90
2014,07,16,13,28,28.90
2014,07,16,13,29,29.00
2014,07,16,13,30,29.10
2014,07,16,13,31,29.10
2014,07,16,13,32,29.00
2014,07,16,13,33,29.00
2014,07,16,13,34,28.90
2014,07,16,13,35,28.80
2014,07,16,13,36,28.80
2014,07,16,13,37,28.80
2014,07,16,13,38,28.80
2014,07,16,13,39,28.80
2014,07,16,13,40,28.90
2014,07,16,13,41,28.90
2014,07,16,13,42,29.00
2014,07,16,13,43,29.00
2014,07,16,13,44,29.10
2014,07,16,13,45,29.20
2014,07,16,13,46,29.20
2014,07,16,13,47,29.20
2014,07,16,13,48,29.20
2014,07,16,13,49,29.30
2014,07,16,13,50,29.40
2014,07,16,13,51,29.50
2014,07,16,13,52,29.60
2014,07,16,13,53,29.70
2014,07,16,13,54,29.70
2014,07,16,13,55,29.70
2014,07,16,13,56,29.70
2014,07,16,13,57,29.60
2014,07,16,13,58,29.60
2014,07,16,13,59,29.50
2014,07,16,14,00,29.40
2014,07,16,14,01,29.40
2014,07,16,14,02,29.30
2014,07,16,14,03,29.30
2014,07,16,14,04,29.20
2014,07,16,14,05,29.20
2014,07,16,14,06,29.30
2014,07,16,14,07,29.40
2014,07,16,14,08,29.50
2014,07,16,14,09,29.60
2014,07,16,14,10,29.70
2014,07,16,14,11,29.70
2014,07,16,14,12,29.80
2014,07,16,14,13,29.80
2014,07,16,14,14,29.90
2014,07,16,14,15,29.90
2014,07,16,14,16,29.90
2014,07,16,14,17,29.70
2014,07,16,14,18,29.60
2014,07,16,14,19,29.60
2014,07,16,14,20,29.60
2014,07,16,14,21,29.60
2014,07,16,14,22,29.50
2014,07,16,14,23,29.40
2014,07,16,14,24,29.40
2014,07,16,14,25,29.30
2014,07,16,14,26,29.20
2014,07,16,14,27,29.20
2014,07,16,14,28,29.10
2014,07,16,14,29,29.10
2014,07,16,14,30,29.20
2014,07,16,14,31,29.30
2014,07,16,14,32,29.30
2014,07,16,14,33,29.40
2014,07,16,14,34,29.50
2014,07,16,14,35,29.60
2014,07,16,14,36,29.70
2014,07,16,14,37,29.70
2014,07,16,14,38,29.70
2014,07,16,14,39,29.70
2014,07,16,14,40,29.70
2014,07,16,14,41,29.60
2014,07,16,14,42,29.50
2014,07,16,14,43,29.50
2014,07,16,14,44,29.50
2014,07,16,14,45,29.60
2014,07,16,14,46,29.60
2014,07,16,14,47,29.50
2014,07,16,14,48,29.50
2014,07,16,14,49,29.50
2014,07,16,14,50,29.60
2014,07,16,14,51,29.60
2014,07,16,14,52,29.60
2014,07,16,14,53,29.60
2014,07,16,14,54,29.60
2014,07,16,14,55,29.50
2014,07,16,14,56,29.40
2014,07,16,14,57,29.40
2014,07,16,14,58,29.50
2014,07,16,14,59,29.60
2014,07,16,15,00,29.60
2014,07,16,15,01,29.70
2014,07,16,15,02,29.70
2014,07,16,15,03,29.70
2014,07,16,15,04,29.70
2014,07,16,15,05,29.70
2014,07,16,15,06,29.70
2014,07,16,15,07,29.70
2014,07,16,15,08,29.80
2014,07,16,15,09,29.80
2014,07,16,15,10,29.80
2014,07,16,15,11,29.80
2014,07,16,15,12,29.70
2014,07,16,15,13,29.60
2014,07,16,15,14,29.60
2014,07,16,15,15,29.60
2014,07,16,15,16,29.60
2014,07,16,15,17,29.60
2014,07,16,15,18,29.60
2014,07,16,15,19,29.60
2014,07,16,15,20,29.60
2014,07,16,15,21,29.70
2014,07,16,15,22,29.80
2014,07,16,15,23,29.90
2014,07,16,15,24,29.90
2014,07,16,15,25,29.80
2014,07,16,15,26,29.80
2014,07,16,15,27,29.80
2014,07,16,15,28,29.80
2014,07,16,15,29,29.80
2014,07,16,15,30,29.90
2014,07,16,15,31,29.90
2014,07,16,15,32,30.00
2014,07,16,15,33,30.10
2014,07,16,15,34,30.10
2014,07,16,15,35,30.10
2014,07,16,15,36,30.10
2014,07,16,15,37,30.00
2014,07,16,15,38,30.00
2014,07,16,15,39,30.00
2014,07,16,15,40,29.90
2014,07,16,15,41,29.90
2014,07,16,15,42,29.90
2014,07,16,15,43,29.90
2014,07,16,15,44,29.90
2014,07,16,15,45,29.90
2014,07,16,15,46,30.00
2014,07,16,15,47,30.10
2014,07,16,15,48,30.10
2014,07,16,15,49,30.10
2014,07,16,15,50,30.10
2014,07,16,15,51,30.00
2014,07,16,15,52,30.00
2014,07,16,15,53,29.90
2014,07,16,15,54,30.00
2014,07,16,15,55,30.00
2014,07,16,15,56,30.00
2014,07,16,15,57,30.10
2014,07,16,15,58,30.10
2014,07,16,15,59,30.10
2014,07,16,16,00,30.10
2014,07,16,16,01,30.10
2014,07,16,16,02,30.10
2014,07,16,16,03,30.20
2014,07,16,16,04,30.20
2014,07,16,16,05,30.30
2014,07,16,16,06,30.40
2014,07,16,16,07,30.50
2014,07,16,16,08,30.50
2014,07,16,16,09,30.50
2014,07,16,16,10,30.50
2014,07,16,16,11,30.60
2014,07,16,16,12,30.60
2014,07,16,16,13,30.60
2014,07,16,16,14,30.70
2014,07,16,16,15,30.70
2014,07,16,16,16,30.60
2014,07,16,16,17,30.60
2014,07,16,16,18,30.50
2014,07,16,16,19,30.50
2014,07,16,16,20,30.40
2014,07,16,16,21,30.40
2014,07,16,16,22,30.30
2014,07,16,16,23,30.30
2014,07,16,16,24,30.30
2014,07,16,16,25,30.40
2014,07,16,16,26,30.50
2014,07,16,16,27,30.50
2014,07,16,16,28,30.50
2014,07,16,16,29,30.50
2014,07,16,16,30,30.60
2014,07,16,16,31,30.60
2014,07,16,16,32,30.60
2014,07,16,16,33,30.60
2014,07,16,16,34,30.60
2014,07,16,16,35,30.60
2014,07,16,16,36,30.60
2014,07,16,16,37,30.70
2014,07,16,16,38,30.70
2014,07,16,16,39,30.70
2014,07,16,16,40,30.70
2014,07,16,16,41,30.70
2014,07,16,16,42,30.70
2014,07,16,16,43,30.70
2014,07,16,16,44,30.80
2014,07,16,16,45,30.80
2014,07,16,16,46,30.90
2014,07,16,16,47,30.90
2014,07,16,16,48,30.90
2014,07,16,16,49,30.90
2014,07,16,16,50,30.90
2014,07,16,16,51,30.80
2014,07,16,16,52,30.80
2014,07,16,16,53,30.70
2014,07,16,16,54,30.80
2014,07,16,16,55,30.80
2014,07,16,16,56,30.80
2014,07,16,16,57,30.70
2014,07,16,16,58,30.70
2014,07,16,16,59,30.70
2014,07,16,17,00,30.70
2014,07,16,17,01,30.80
2014,07,16,17,02,30.80
2014,07,16,17,03,30.80
2014,07,16,17,04,30.80
2014,07,16,17,05,30.90
2014,07,16,17,06,30.90
2014,07,16,17,07,30.90
2014,07,16,17,08,30.90
2014,07,16,17,09,30.90
2014,07,16,17,10,30.90
2014,07,16,17,11,30.90
2014,07,16,17,12,30.90
2014,07,16,17,13,30.90
2014,07,16,17,14,31.00
2014,07,16,17,15,31.00
2014,07,16,17,16,31.10
2014,07,16,17,17,31.10
2014,07,16,17,18,31.00
2014,07,16,17,19,31.00